Regional Weather Roundup
Issued by NWS Cleveland, OH

Home | Current Version | Previous Version | Graphics & Text | Print | Product List | Glossary On
Versions: 1 2 3 4 5 6 7 8 9 10 11 12 13 14 15 16 17 18 19 20 21 22 23 24 25 26 27 28 29 30 31 32 33 34 35 36 37 38 39 40 41 42 43 44 45 46 47 48 49 50
000
ASUS41 KCLE 021610
RWRCLE
OHIO REGIONAL WEATHER ROUNDUP
NATIONAL WEATHER SERVICE CLEVELAND, OH
1200 PM EDT THU JUL 02 2015

NOTE: "FAIR" INDICATES FEW OR NO CLOUDS BELOW 12,000 FEET WITH NO
SIGNIFICANT WEATHER AND/OR OBSTRUCTIONS TO VISIBILITY.

OHZ001>008-015>018-024>027-034-035-043-044-021700-
   NORTHWEST OHIO

CITY           SKY/WX    TMP DP  RH WIND       PRES   REMARKS
DEFIANCE       PTSUNNY   70  59  68 E8        29.99S
FINDLAY        CLOUDY    69  60  73 E12       29.98R
TOLEDO EXPRESS CLOUDY    70  57  63 E12       30.00R
TOLEDO EXEC      N/A    N/A N/A N/A MISG      30.01R
LIMA           MOSUNNY   70  63  78 NE10      29.96S
$$

OHZ009>014-019>023-028>033-038-089-021700-
   NORTHEAST OHIO

CITY           SKY/WX    TMP DP  RH WIND       PRES   REMARKS
CLE-HOPKINS    MOSUNNY   70  60  70 N13       30.01R
CLE-LAKEFRONT  MOSUNNY   68  60  75 N14       29.99R
CUY CO. ARPT   MOSUNNY   70  63  78 N12       30.00R
LORAIN-ELYRIA  PTSUNNY   68  59  73 N9        30.00R
ASHTABULA      SUNNY     69  59  70 NE8       30.00R
AKRON-CANTON   CLOUDY    69  60  73 VRB6      29.98S
WOOSTER        SUNNY     71  60  68 NE6       29.99S
MANSFIELD      PTSUNNY   69  60  73 NE9       29.99R
YOUNGSTOWN     PTSUNNY   70  60  70 N9        29.98R
$$

OHZ042-051>053-060>062-070>072-077>081-021700-
  SOUTHWEST OHIO

CITY           SKY/WX    TMP DP  RH WIND       PRES   REMARKS
CINC-COVINGTON CLOUDY    71  66  84 SE7       29.91S FOG
CINC-LUNKEN    CLOUDY    71  69  93 NE3       29.91S FOG
HAMILTON       CLOUDY    74  68  81 VRB3      29.92S HAZE
DAYTON         CLOUDY    71  62  73 E9        29.95R
WRIGHT-PAT AFB MOSUNNY   70  62  76 NE8       29.93S
DAYTON GENERAL CLOUDY    69  65  86 E6        29.92S
WILMINGTON     CLOUDY    67  64  90 VRB3      29.93S FOG
$$

OHZ036-037-039>041-045>050-054>059-063>069-073>076-082>088-021700-
  CENTRAL AND SOUTHEAST OHIO

CITY           SKY/WX    TMP DP  RH WIND       PRES   REMARKS
COLUMBUS       CLOUDY    69  61  75 CALM      29.95S
OSU AIRPORT    CLOUDY    69  60  73 CALM      29.96R
BOLTON FIELD   CLOUDY    68  61  77 NE3       29.96S
RICKENBACK AFB NOT AVBL
NEWARK         CLOUDY    71  60  68 CALM      29.96R
MARION         PTSUNNY   72  63  73 NE10      29.97S
LANCASTER      CLOUDY    68  61  78 NE5       29.96R
ZANESVILLE     NOT AVBL
NEW PHILLY     PTSUNNY   72  61  68 VRB5      29.97R
$$


USA.gov is the U.S. government's official web portal to all federal, state and local government web resources and services.